Location: Unspecified
(0.0000°N, 0.0000°E)
Time: 19:56:09
(UTC+00:00)

Envisat - Visible Passes

Search period start: 18 January 2018 00:00
Search period end: 28 January 2018 00:00
Orbit: 764 x 766 km, 98.2° (Epoch: 18 January)

Date Brightness Start Highest point End Pass type
(mag) Time Alt. Az. Time Alt. Az. Time Alt. Az.
18 Jan 3.1 19:42:56 10° SSE 19:47:24 51° E 19:47:24 51° E visible
19 Jan 4.4 19:07:48 10° ESE 19:10:18 18° E 19:10:18 18° E visible
19 Jan 4.9 20:45:52 10° SSW 20:50:00 25° WSW 20:50:31 25° W visible
20 Jan 3.1 20:08:19 10° S 20:13:24 74° WSW 20:13:25 74° W visible
21 Jan 3.4 19:32:05 10° SE 19:36:19 37° E 19:36:19 37° E visible
21 Jan 5.9 21:13:37 10° SW 21:15:29 12° WSW 21:16:32 11° W visible
22 Jan 4.7 18:57:45 10° ESE 18:59:13 13° E 18:59:13 13° E visible
22 Jan 4.4 20:34:20 10° SSW 20:38:54 34° WSW 20:39:26 34° W visible
23 Jan 2.8 19:57:12 10° SSE 20:02:17 82° ENE 20:02:18 82° ENE visible
24 Jan 3.8 19:21:22 10° SE 19:25:13 28° E 19:25:13 28° E visible
24 Jan 5.5 21:01:15 10° SW 21:04:24 17° WSW 21:05:26 16° W visible
25 Jan 3.9 20:22:57 10° S 20:27:49 47° WSW 20:28:20 45° W visible
26 Jan 2.9 19:46:12 10° SSE 19:51:11 60° ENE 19:51:13 60° ENE visible
27 Jan 4.2 19:10:49 10° SE 19:14:07 21° E 19:14:07 21° E visible
27 Jan 5.1 20:49:24 10° SSW 20:53:19 23° WSW 20:54:19 21° W visible
